This is the latest recevied weather packets stored in our database for station/object EW3591. If no packets are shown the sender has not sent any weather packets the latest 1 day(s).
| Time | Temp. | Humidity | Pressure | Rain* | Wind** | Luminosity | Snow |
|---|---|---|---|---|---|---|---|
| 1778086622 | 10.56° C | 90% | 1008.8 hPa | 0 mm | - | - | - |
| 1778086261 | 10° C | 92% | 1009 hPa | 0 mm | - | - | - |
| 1778085780 | 10° C | 91% | 1009.1 hPa | 0 mm | - | - | - |
| 1778085419 | 10° C | 90% | 1009 hPa | 0 mm | - | - | - |
| 1778085058 | 10° C | 91% | 1009.1 hPa | 0 mm | - | - | - |
| 1778084577 | 10.56° C | 90% | 1009 hPa | 0 mm | - | - | - |
| 1778084216 | 10.56° C | 90% | 1009.1 hPa | 0 mm | - | - | - |
| 1778083855 | 10.56° C | 89% | 1009 hPa | 0 mm | - | - | - |
| 1778083374 | 11.11° C | 90% | 1008.9 hPa | 0 mm | - | - | - |
| 1778083013 | 10.56° C | 91% | 1008.9 hPa | 0 mm | - | - | - |
| 1778082652 | 10.56° C | 92% | 1009 hPa | 0 mm | - | - | - |
| 1778082171 | 10° C | 92% | 1009.1 hPa | 0 mm | - | - | - |
| 1778081810 | 10° C | 93% | 1009.3 hPa | 0 mm | - | - | - |
| 1778081449 | 9.44° C | 94% | 1009.2 hPa | 0 mm | - | - | - |
| 1778080968 | 9.44° C | 94% | 1009.1 hPa | 0 mm | - | - | - |
| 1778080607 | 9.44° C | 96% | 1009 hPa | 0 mm | - | - | - |
| 1778080366 | 9.44° C | 97% | 1009 hPa | 0 mm | - | - | - |
| 1778080246 | 9.44° C | 97% | 1008.9 hPa | 0 mm | - | - | - |
| 1778079885 | 8.89° C | 98% | 1008.9 hPa | 0 mm | - | - | - |
| 1778079404 | 8.33° C | 98% | 1008.9 hPa | 0 mm | - | - | - |
| 1778079043 | 8.33° C | 98% | 1008.8 hPa | 0 mm | - | - | - |
| 1778078321 | 7.78° C | 98% | 1008.7 hPa | 0 mm | - | - | - |
| 1778078201 | 7.78° C | 98% | 1008.7 hPa | 0 mm | - | - | - |
| 1778077840 | 7.78° C | 98% | 1008.7 hPa | 0 mm | - | - | - |
| 1778077479 | 7.78° C | 98% | 1008.7 hPa | 0 mm | - | - | - |
* Rain latest hour (hover to see other rain measurements)
** Current wind speed in m/s (hover to see current wind gust speed)